Regional Weather Roundup
Issued by NWS Austin/San Antonio, TX

Current Version | Previous Version | Text Only | Print | Product List | Glossary On
Versions: 1 2 3 4 5 6 7 8 9 10 11 12 13 14 15 16 17 18 19 20 21 22 23 24 25 26 27 28 29 30 31 32 33 34 35 36 37 38 39 40 41 42 43 44 45 46 47 48 49 50
000
ASUS44 KEWX 010601
RWREWX
SOUTH TEXAS REGIONAL WEATHER ROUNDUP
NATIONAL WEATHER SERVICE AUSTIN/SAN ANTONIO TX
1200 AM CST FRI MAR 01 2024

NOTE: "FAIR" INDICATED FEW OR NO CLOUDS BELOW 12,000 FEET WITH NO
SIGNIFICANT WEATHER AND/OR OBSTRUCTIONS TO VISIBILITY.

* - THESE STATIONS ARE NOT NWS OR FAA STATIONS...AND ARE NOT SUBJECT
    TO NWS AND FAA QUALITY CONTROL.

TXZ171-172-183>190-010700-
TEXAS HILL COUNTRY AND EDWARDS PLATEAU

CITY           SKY/WX    TMP DP  RH WIND       PRES   REMARKS
JUNCTION       CLEAR     35  31  85 CALM      30.15F
6HR MIN TEMP:  35; 6HR MAX TEMP:  53;

*LLANO         CLOUDY    37  34  87 CALM      30.18F
BURNET         CLOUDY    44  39  82 E5        30.17F WCI  42
6HR MIN TEMP:  44; 6HR MAX TEMP:  46;

*HORSESHOE BAY CLOUDY    46  38  73 CALM      30.18F
6HR MIN TEMP:  46; 6HR MAX TEMP:  47;

*LAGO VISTA    NOT AVBL
*KERRVILLE     CLEAR     44  34  67 CALM      30.14F
6HR MIN TEMP:  44; 6HR MAX TEMP:  48;

*FREDERICKSBRG CLEAR     43  32  66 CALM      30.16S
6HR MIN TEMP:  43; 6HR MAX TEMP:  46;

*ROCKSPRINGS   CLEAR     39  32  75 SE5       30.17F WCI  36
*BOERNE        CLOUDY    45  36  70 CALM      30.16F
*CASTROVILLE   CLOUDY    51  40  65 E5        30.18F HAZE
HONDO          CLOUDY    49  37  63 E6        30.16S WCI  46
6HR MIN TEMP:  49; 6HR MAX TEMP:  51;

*UVALDE        CLEAR     41  35  77 CALM      30.18S
6HR MIN TEMP:  41; 6HR MAX TEMP:  53;

DEL RIO        CLEAR     49  32  52 E5        30.16S WCI  47
6HR MIN TEMP:  48; 6HR MAX TEMP:  64;

*LAUGHLIN AFB  NOT AVBL
*SPOFFORD      NOT AVBL
CARRIZO SPRGS  CLOUDY    50  37  62 SE3       30.16S
*FAITH RANCH   MOCLDY    48  34  57 SE5       30.17F WCI  46
$$

TXZ173-191>194-202-209-217>225-228-010700-
CENTRAL AND SOUTH CENTRAL TEXAS

CITY           SKY/WX    TMP DP  RH WIND       PRES   REMARKS
GEORGETOWN     CLOUDY    44  40  85 CALM      30.20F
6HR MIN TEMP:  44; 6HR MAX TEMP:  44; 6HR PCP: TRACE;

*TAYLOR        CLOUDY    43  42  97 N5        30.19F FOG     WCI  40
6HR MIN TEMP:  43; 6HR MAX TEMP:  44;

AUSTIN/BERGSTM CLOUDY    44  44 100 NE5       30.18F FOG     WCI  42
6HR MIN TEMP:  43; 6HR MAX TEMP:  45; 6HR PCP: TRACE;

AUSTIN/MABRY   CLOUDY    45  41  86 CALM      30.19F
6HR MIN TEMP:  45; 6HR MAX TEMP:  46; 6HR PCP: TRACE;

*PFLUGERVILLE  NOT AVBL
SAN MARCOS     CLOUDY    44  44 100 NE7       30.19F FOG     WCI  40
6HR MIN TEMP:  43; 6HR MAX TEMP:  44; 6HR PCP:  0.01;

NEW BRAUNFELS  CLOUDY    45  43  93 NE8       30.16F FOG     WCI  41
6HR MIN TEMP:  44; 6HR MAX TEMP:  45;

*RANDOLPH AFB  CLOUDY    45  43  93 NE6       30.13F FOG     WCI  41
6HR MIN TEMP:  42; 6HR MAX TEMP:  47;

*SEGUIN        CLOUDY    45  45  97 NE7       30.14F FOG     WCI  42
6HR MIN TEMP:  43; 6HR MAX TEMP:  47; 6HR PCP:  0.01;

SAN ANTONIO    CLOUDY    47  41  80 E7        30.16F WCI  44
6HR MIN TEMP:  47; 6HR MAX TEMP:  48;

STINSON FIELD  CLOUDY    46  43  89 E7        30.15F WCI  42
6HR MIN TEMP:  46; 6HR MAX TEMP:  47;

*KELLY FIELD   CLOUDY    48  42  77 NE6       30.13F WCI  46
6HR MIN TEMP:  48; 6HR MAX TEMP:  50;

*PLEASANTON    CLOUDY    47  42  83 NE7       30.19F WCI  44
*KENEDY        CLOUDY    47  43  84 N7        30.18F WCI  44
6HR MIN TEMP:  47; 6HR MAX TEMP:  49;

*LA GRANGE     CLOUDY    47  46  97 N5        30.17F WCI  45
*GIDDINGS      CLOUDY    44  42  93 CALM      30.19S
6HR MIN TEMP:  44; 6HR MAX TEMP:  46; 6HR PCP:  0.01;

*GONZALES      CLOUDY    46  44  92 NE3       30.18F FOG
$$

TXZ163>164-176>182-195>201-210>213-226-227-235-010700-
SOUTHEAST TEXAS

CITY           SKY/WX    TMP DP  RH WIND       PRES   REMARKS
COLLEGE STN    CLOUDY    46  42  86 E5        30.19F WCI  44
6HR MIN TEMP:  45; 6HR MAX TEMP:  47;

*BRYAN         CLOUDY    45  44  98 CALM      30.21F
6HR MIN TEMP:  44; 6HR MAX TEMP:  46; 6HR PCP:  0.02;

*CALDWELL      CLOUDY    44  42  93 N5        30.20F WCI  42
*CROCKETT      CLOUDY    43  43 100 NE3       30.21F
*BRENHAM       DRIZZLE   47  43  86 N3        30.19F
6HR MIN TEMP:  47; 6HR MAX TEMP:  51;

HUNTSVILLE     CLOUDY    45  41  86 NE9       30.19F WCI  40
6HR MIN TEMP:  45; 6HR MAX TEMP:  47;

CONROE         CLOUDY    48  40  73 N7        30.18F WCI  45
6HR MIN TEMP:  48; 6HR MAX TEMP:  50;

HOUSTON BUSH   CLOUDY    51  38  60 NE12      30.16F
6HR MIN TEMP:  51; 6HR MAX TEMP:  54;

HOUSTON HOBBY  CLOUDY    54  37  52 N9        30.13F
6HR MIN TEMP:  54; 6HR MAX TEMP:  57;

*HOUSTON SW AP CLOUDY    54  36  52 N7        30.15F
6HR MIN TEMP:  54; 6HR MAX TEMP:  56;

PEARLAND       CLOUDY    54  38  54 N7        30.15F
6HR MIN TEMP:  54; 6HR MAX TEMP:  55;

HOUSTON HOOKS  CLOUDY    51  39  63 N9        30.16F
6HR MIN TEMP:  50; 6HR MAX TEMP:  52;

ELLINGTON FLD  CLOUDY    54  37  54 N9        30.14F
SUGAR LAND     CLOUDY    53  39  59 NE9       30.14F
6HR MIN TEMP:  53; 6HR MAX TEMP:  56;

*HOUSTON EXEC  CLEAR     50  41  71 N9        30.17F WCI  46
*CLEVELAND MUN CLOUDY    51  38  61 N3        30.19F
6HR MIN TEMP:  51; 6HR MAX TEMP:  53;

*WHARTON       CLOUDY    50  37  60 N9        30.15F WCI  47
6HR MIN TEMP:  50; 6HR MAX TEMP:  55;

*COLUMBUS      CLOUDY    48  42  80 N5        30.18F WCI  46
6HR MIN TEMP:  48; 6HR MAX TEMP:  51;

*EAGLE LAKE    CLOUDY    49  42  77 MISG      30.16F
$$

TXZ214>216-236>238-010700-
THE UPPER TEXAS COAST

CITY           SKY/WX    TMP DP  RH WIND       PRES   REMARKS
*ORANGE        CLOUDY    55  34  43 N5        30.18S
PORT ARTHUR    CLOUDY    54  35  48 N10       30.14F
6HR MIN TEMP:  54; 6HR MAX TEMP:  56;

GALVESTON      CLOUDY    56  42  59 N15       30.12F
6HR MIN TEMP:  56; 6HR MAX TEMP:  58;

ANGLETON       CLOUDY    54  44  69 N9        30.13F
6HR MIN TEMP:  53; 6HR MAX TEMP:  56;

*BAY CITY      CLOUDY    50  40  66 N8        30.13F WCI  47
PALACIOS       CLOUDY    53  41  63 N12       30.11F
6HR MIN TEMP:  53; 6HR MAX TEMP:  56;

$$

TXZ229>234-239>247-010700-
TEXAS COASTAL BEND AND RIO GRANDE PLAINS

CITY           SKY/WX    TMP DP  RH WIND       PRES   REMARKS
VICTORIA       CLOUDY    50  41  71 N9        30.15F WCI  46
6HR MIN TEMP:  49; 6HR MAX TEMP:  52; 6HR PCP: TRACE;

*BEEVILLE      CLOUDY    47  39  74 N8        30.16S WCI  43
6HR MIN TEMP:  47; 6HR MAX TEMP:  50;

ROCKPORT       CLOUDY    52  44  74 N12       30.12F
6HR MIN TEMP:  52; 6HR MAX TEMP:  54;

*PORT ARANSAS  CLOUDY    55  47  75 N14       30.14R
6HR MIN TEMP:  54; 6HR MAX TEMP:  56;

*PORT LAVACA   CLOUDY    55  42  62 N12       30.14F
6HR MIN TEMP:  55; 6HR MAX TEMP:  56;

*INGLESIDE     NOT AVBL
CORPUS CHRISTI CLOUDY    52  43  71 N14       30.14R
6HR MIN TEMP:  50; 6HR MAX TEMP:  56; 6HR PCP: TRACE;

CORPUS NAS     CLOUDY    56  45  66 N15       30.13R
6HR MIN TEMP:  56; 6HR MAX TEMP:  59;

*ROBSTOWN      CLOUDY    51  42  71 N9        30.15S
ALICE          CLOUDY    50  41  71 N10       30.15S WCI  46
6HR MIN TEMP:  50; 6HR MAX TEMP:  54;

KINGSVILLE NAS CLOUDY    53  42  66 N12       30.16R
6HR MIN TEMP:  53; 6HR MAX TEMP:  58;

COTULLA        CLOUDY    50  42  74 E6        30.17S WCI  48
6HR MIN TEMP:  50; 6HR MAX TEMP:  54;

LAREDO         CLOUDY    52  35  52 NE6       30.16S
6HR MIN TEMP:  52; 6HR MAX TEMP:  54;

$$

TXZ248>255-010700-
DEEP SOUTH TEXAS

CITY           SKY/WX    TMP DP  RH WIND       PRES   REMARKS
BROWNSVILLE    CLOUDY    58  49  72 N14G21    30.11S
6HR MIN TEMP:  58; 6HR MAX TEMP:  60;

PORT ISABEL    CLOUDY    57  49  74 N13       30.11R
6HR MIN


USA.gov is the U.S. government's official web portal to all federal, state and local government web resources and services.